Latest Weather Observations for Narrabri

IDN60801

Issued at 1:32 pm EDT Thursday 23 February 2017 (issued every 30 minutes, with the page automatically refreshed every 10 minutes)

About weather observations | Map of weather stations | Latest weather observations for NSW | Other Formats
Station Details ID: 054038 Name: NARRABRI AIRPORT AWS Lat: -30.32 Lon: 149.83 Height: 229.02 m
Data from the previous 72 hours. | See also: Recent months at Narrabri
Date/Time
EDT
Temp
°C
App
Temp
°C
Dew
Point
°C
Rel
Hum
%
Delta-T
°C
Wind Press
QNH
hPa
Press
MSL
hPa
Rain since
9am
mm
Dir  Spd
km/h
Gust
km/h
Spd
kts
Gust
kts
23/01:30pm 31.3 29.9 12.2 31 11.3 SW 11 17 6 9 1018.7 1017.4 0.0
23/01:00pm 30.5 28.6 11.9 31 10.9 WSW 13 20 7 11 1019.2 1017.9 0.0
23/12:30pm 31.0 29.8 12.8 32 10.9 NW 11 20 6 11 1019.5 1018.2 0.0
23/12:00pm 29.4 28.6 12.8 36 9.9 NNE 9 13 5 7 1019.8 1018.5 0.0
23/11:30am 28.6 27.3 12.5 37 9.5 NNW 11 17 6 9 1020.4 1019.1 0.0
23/11:00am 27.4 26.1 12.6 40 8.7 NNW 11 17 6 9 1020.6 1019.3 0.0
23/10:30am 26.9 25.7 12.9 42 8.3 NW 11 20 6 11 1020.7 1019.4 0.0
23/10:00am 26.4 24.9 13.2 44 7.8 NNW 13 20 7 11 1020.7 1019.4 0.0
23/09:30am 25.5 24.0 13.0 46 7.3 NNW 13 19 7 10 1020.4 1019.1 0.0
23/09:00am 24.9 23.9 13.5 49 6.7 N 11 19 6 10 1020.0 1018.7 0.0
23/08:30am 23.6 23.2 14.0 55 5.7 N 9 13 5 7 1019.7 1018.4 0.0
23/08:00am 22.4 22.2 13.7 58 5.1 NNE 7 7 4 4 1019.6 1018.3 0.0
23/07:30am 21.0 21.0 14.2 65 4.0 NE 7 9 4 5 1019.3 1018.0 0.0
23/07:00am 19.7 18.9 14.1 70 3.3 ENE 11 13 6 7 1018.8 1017.5 0.0
23/06:30am 19.3 18.4 13.7 70 3.2 NE 11 13 6 7 1018.4 1017.0 0.0
23/06:00am 20.1 19.2 13.6 66 3.8 NNE 11 13 6 7 1018.1 1016.7 0.0
23/05:30am 20.5 20.3 13.7 65 4.0 NNE 7 11 4 6 1017.9 1016.5 0.0
23/05:00am 20.8 20.2 13.5 63 4.2 N 9 13 5 7 1017.6 1016.2 0.0
23/04:30am 21.3 21.4 14.0 63 4.3 N 6 9 3 5 1017.5 1016.1 0.0
23/04:00am 21.3 19.2 13.5 61 4.5 NNW 17 19 9 10 1017.1 1015.7 0.0
23/03:30am 21.5 21.1 12.9 58 5.0 N 7 9 4 5 1017.2 1015.8 0.0
23/03:00am 23.3 21.5 13.2 53 5.9 N 15 19 8 10 1017.1 1015.7 0.0
23/02:30am 23.5 21.4 13.7 54 5.8 N 17 20 9 11 1017.3 1015.9 0.0
23/02:00am 22.0 20.8 12.8 56 5.3 N 11 13 6 7 1017.4 1016.0 0.0
23/01:30am 22.9 22.5 13.1 54 5.7 NNE 7 9 4 5 1017.4 1016.0 0.0
23/01:00am 23.0 21.7 12.6 52 6.0 NNE 11 13 6 7 1017.3 1015.9 0.0
23/12:30am 23.5 21.5 11.5 47 6.8 N 13 17 7 9 1017.5 1016.1 0.0
23/12:00am 25.2 22.9 11.7 43 7.7 N 15 19 8 10 1017.6 1016.2 0.0
 
Date/Time
EDT
Temp
°C
App
Temp
°C
Dew
Point
°C
Rel
Hum
%
Delta-T
°C
Wind Press
QNH
hPa
Press
MSL
hPa
Rain since
9am
mm
Dir  Spd
km/h
Gust
km/h
Spd
kts
Gust
kts
22/11:30pm 23.1 22.1 12.4 51 6.2 NE 9 15 5 8 1017.5 1016.1 0.0
22/11:00pm 25.0 23.3 12.6 46 7.2 ENE 13 13 7 7 1017.1 1015.7 0.0
22/10:30pm 25.3 23.6 12.5 45 7.5 ENE 13 17 7 9 1017.0 1015.6 0.0
22/10:00pm 26.6 24.6 11.5 39 8.7 E 13 15 7 8 1016.7 1015.3 0.0
22/09:30pm 27.0 25.0 11.5 38 8.9 ENE 13 17 7 9 1016.4 1015.0 0.0
22/09:00pm 27.0 26.3 11.5 38 8.9 N 6 7 3 4 1015.9 1014.6 0.0
22/08:30pm 28.4 28.5 10.1 32 10.4 CALM 0 0 0 0 1015.7 1014.4 0.0
22/08:00pm 29.2 28.8 9.9 30 11.0 SSW 2 6 1 3 1015.3 1014.0 0.0
22/07:30pm 32.3 31.9 9.8 25 12.9 SW 2 7 1 4 1015.1 1013.8 0.0
22/07:00pm 33.0 31.6 9.7 24 13.4 NW 7 15 4 8 1014.9 1013.6 0.0
22/06:30pm 33.7 33.1 10.3 24 13.6 SE 4 11 2 6 1014.8 1013.5 0.0
22/06:00pm 33.7 33.1 10.3 24 13.6 ENE 4 9 2 5 1014.8 1013.5 0.0
22/05:30pm 33.7 31.6 9.7 23 13.9 NNW 11 20 6 11 1014.8 1013.5 0.0
22/05:00pm 33.9 33.0 10.5 24 13.7 WNW 6 15 3 8 1014.9 1013.6 0.0
22/04:30pm 33.3 32.2 10.0 24 13.5 WNW 6 13 3 7 1015.2 1013.9 0.0
22/04:00pm 33.1 31.4 9.8 24 13.4 NW 9 15 5 8 1015.6 1014.3 0.0
22/03:30pm 33.0 31.8 9.7 24 13.4 N 6 13 3 7 1016.1 1014.8 0.0
22/03:00pm 32.4 30.1 10.4 26 12.8 W 13 20 7 11 1016.6 1015.2 0.0
22/02:30pm 32.7 32.1 11.8 28 12.4 W 6 11 3 6 1017.1 1015.7 0.0
22/02:00pm 32.4 31.2 11.6 28 12.3 W 9 15 5 8 1017.6 1016.2 0.0
22/01:30pm 31.6 31.4 11.9 30 11.7 NNE 4 15 2 8 1018.1 1016.7 0.0
22/01:00pm 29.8 29.1 11.3 32 10.8 N 6 11 3 6 1018.5 1017.1 0.0
22/12:30pm 29.6 28.7 11.2 32 10.7 ESE 7 13 4 7 1018.9 1017.6 0.0
22/12:00pm 30.1 29.3 11.1 31 11.0 E 6 13 3 7 1019.4 1018.1 0.0
22/11:30am 29.2 28.9 12.6 36 9.8 NNE 6 9 3 5 1019.7 1018.4 0.0
22/11:00am 27.8 27.3 12.2 38 9.1 SW 6 13 3 7 1020.0 1018.7 0.0
22/10:30am 26.9 25.9 12.2 40 8.6 SSE 9 15 5 8 1020.2 1018.9 0.0
22/10:00am 25.7 25.1 12.2 43 7.8 S 7 13 4 7 1020.3 1019.0 0.0
22/09:30am 24.2 22.4 10.8 43 7.5 W 11 17 6 9 1020.3 1019.0 0.0
22/09:00am 22.3 21.2 10.5 47 6.5 SW 7 11 4 6 1020.1 1018.8 0.0
22/08:30am 20.7 19.5 9.6 49 6.0 SSW 6 9 3 5 1019.7 1018.4 0.0
22/08:00am 18.8 18.5 8.5 51 5.4 CALM 0 0 0 0 1019.5 1018.2 0.0
22/07:30am 16.7 16.5 8.9 60 4.1 CALM 0 0 0 0 1019.4 1018.1 0.0
22/07:00am 15.5 15.2 8.5 63 3.6 CALM 0 0 0 0 1018.8 1017.5 0.0
22/06:30am 15.5 15.3 9.0 65 3.4 CALM 0 0 0 0 1018.4 1017.0 0.0
22/06:00am 15.6 14.3 9.1 65 3.4 ENE 6 11 3 6 1018.1 1016.7 0.0
22/05:30am 16.0 14.0 8.5 61 3.9 ENE 9 13 5 7 1017.7 1016.3 0.0
22/05:00am 16.6 16.0 7.5 55 4.6 CALM 0 0 0 0 1017.7 1016.3 0.0
22/04:30am 16.9 14.9 7.3 53 4.9 E 7 9 4 5 1017.5 1016.1 0.0
22/04:00am 16.5 14.4 8.2 58 4.3 ENE 9 17 5 9 1017.2 1015.8 0.0
22/03:30am 15.7 14.7 7.5 58 4.1 NW 2 9 1 5 1017.2 1015.8 0.0
22/03:00am 18.1 15.7 6.9 48 5.7 S 9 17 5 9 1017.1 1015.7 0.0
22/02:30am 16.2 14.8 7.4 56 4.4 S 4 7 2 4 1017.0 1015.6 0.0
22/02:00am 17.3 15.3 7.1 51 5.1 S 7 7 4 4 1016.7 1015.3 0.0
22/01:30am 18.5 16.6 7.6 49 5.6 ESE 7 11 4 6 1016.8 1015.4 0.0
22/01:00am 18.8 18.0 6.3 44 6.3 CALM 0 0 0 0 1016.9 1015.5 0.0
22/12:30am 19.9 16.8 7.3 44 6.5 ENE 13 15 7 8 1016.8 1015.4 0.0
22/12:00am 21.5 18.5 5.8 36 7.9 ENE 11 13 6 7 1017.0 1015.6 0.0
 
Date/Time
EDT
Temp
°C
App
Temp
°C
Dew
Point
°C
Rel
Hum
%
Delta-T
°C
Wind Press
QNH
hPa
Press
MSL
hPa
Rain since
9am
mm
Dir  Spd
km/h
Gust
km/h
Spd
kts
Gust
kts
21/11:30pm 21.1 17.8 6.2 38 7.6 ENE 13 15 7 8 1017.2 1015.8 0.0
21/11:00pm 21.0 18.0 6.2 38 7.5 ENE 11 13 6 7 1017.1 1015.7 0.0
21/10:30pm 21.9 19.3 6.2 36 8.0 ENE 9 13 5 7 1017.4 1016.0 0.0
21/10:00pm 22.1 19.1 5.9 35 8.2 NE 11 13 6 7 1017.3 1015.9 0.0
21/09:30pm 23.0 19.5 5.4 32 8.9 NNE 13 15 7 8 1017.2 1015.8 0.0
21/09:00pm 25.9 21.3 5.5 27 10.5 NNE 19 24 10 13 1016.9 1015.5 0.0
21/08:30pm 24.7 22.2 4.5 27 10.2 N 7 9 4 5 1016.4 1015.0 0.0
21/08:00pm 25.6 22.3 4.7 26 10.6 N 11 11 6 6 1016.0 1014.7 0.0
21/07:30pm 28.5 25.9 3.4 20 12.7 N 6 13 3 7 1015.6 1014.3 0.0
21/07:00pm 30.8 27.7 1.2 15 14.6 N 7 19 4 10 1015.4 1014.1 0.0
21/06:30pm 32.2 28.6 0.3 13 15.7 NW 9 13 5 7 1015.2 1013.9 0.0
21/06:00pm 32.8 29.1 -0.3 12 16.2 W 9 19 5 10 1015.1 1013.8 0.0
21/05:30pm 32.6 28.8 -0.5 12 16.1 WSW 9 20 5 11 1015.0 1013.7 0.0
21/05:00pm 32.4 28.1 -1.8 11 16.3 WNW 11 17 6 9 1015.0 1013.7 0.0
21/04:30pm 32.3 28.5 -0.7 12 16.0 WSW 9 15 5 8 1015.1 1013.8 0.0
21/04:00pm 32.4 28.8 0.5 13 15.8 W 9 19 5 10 1015.2 1013.9 0.0
21/03:30pm 31.5 27.4 -0.2 13 15.4 ENE 11 20 6 11 1015.4 1014.1 0.0
21/03:00pm 31.7 27.1 -1.2 12 15.7 NNW 13 20 7 11 1015.5 1014.2 0.0
21/02:30pm 31.6 27.1 -0.1 13 15.4 NW 13 20 7 11 1016.0 1014.7 0.0
21/02:00pm 30.2 26.0 -1.2 13 14.8 N 11 19 6 10 1016.5 1015.1 0.0
21/01:30pm 30.7 26.9 -0.8 13 15.1 W 9 22 5 12 1016.6 1015.2 0.0
21/01:00pm 30.5 27.0 1.0 15 14.5 NNE 9 15 5 8 1017.2 1015.8 0.0
21/12:30pm 29.7 26.4 0.3 15 14.2 W 7 15 4 8 1017.7 1016.3 0.0
21/12:00pm 28.6 25.0 0.3 16 13.6 SSW 9 15 5 8 1018.2 1016.8 0.0
21/11:30am 27.6 24.9 0.4 17 13.0 WSW 4 11 2 6 1018.8 1017.5 0.0
21/11:00am 27.6 24.9 2.6 20 12.4 NNW 6 13 3 7 1019.0 1017.7 0.0
21/10:30am 26.1 23.2 1.4 20 11.9 N 6 11 3 6 1019.1 1017.8 0.0
21/10:00am 25.3 22.5 2.1 22 11.2 NNW 6 11 3 6 1018.8 1017.5 0.0
21/09:30am 23.4 21.1 2.8 26 10.0 WSW 4 11 2 6 1018.6 1017.2 0.0
21/09:00am 20.0 17.2 3.3 33 8.0 NNW 7 11 4 6 1018.5 1017.1 0.0
21/08:30am 18.1 16.6 2.8 36 7.1 CALM 0 0 0 0 1018.2 1016.8 0.0
21/08:00am 16.1 13.5 3.2 42 5.9 E 6 13 3 7 1017.9 1016.5 0.0
21/07:30am 14.4 12.6 3.5 48 5.0 NW 2 7 1 4 1017.5 1016.1 0.0
21/07:00am 14.8 10.0 2.7 44 5.5 SSE 17 22 9 12 1016.9 1015.5 0.0
21/06:30am 13.5 9.5 3.0 49 4.7 S 13 15 7 8 1016.4 1015.0 0.0
21/06:00am 13.6 9.6 3.1 49 4.7 SSW 13 17 7 9 1015.9 1014.6 0.0
21/05:53am 14.0 10.3 2.6 46 5.1 SSW 11 13 6 7 1015.8 1014.5 0.0
21/05:30am 19.0 14.0 -1.4 25 8.8 SE 15 22 8 12 1015.4 1014.1 0.0
21/05:00am 18.0 14.0 0.6 31 7.7 SE 11 19 6 10 1015.3 1014.0 0.0
21/04:30am 13.4 11.1 4.6 55 4.1 SE 6 9 3 5 1015.4 1014.1 0.0
21/04:00am 18.0 14.2 1.5 33 7.5 SE 11 15 6 8 1015.3 1014.0 0.0
21/03:30am 18.0 13.8 1.5 33 7.5 SE 13 17 7 9 1015.5 1014.2 0.0
21/03:00am 18.2 13.7 2.1 34 7.4 SE 15 19 8 10 1015.4 1014.1 0.0
21/02:30am 17.1 13.6 3.4 40 6.4 SE 11 15 6 8 1015.5 1014.2 0.0
21/02:00am 14.5 13.1 3.3 47 5.1 CALM 0 0 0 0 1016.0 1014.7 0.0
21/01:30am 14.7 13.8 6.0 56 4.2 CALM 0 0 0 0 1016.1 1014.8 0.0
21/01:00am 15.2 13.0 5.4 52 4.7 SE 6 9 3 5 1015.9 1014.6 0.0
21/12:30am 16.1 13.4 5.4 49 5.2 ESE 9 11 5 6 1016.1 1014.8 0.0
21/12:00am 16.5 13.9 6.3 51 5.0 ESE 9 9 5 5 1016.1 1014.8 0.0
 
Date/Time
EDT
Temp
°C
App
Temp
°C
Dew
Point
°C
Rel
Hum
%
Delta-T
°C
Wind Press
QNH
hPa
Press
MSL
hPa
Rain since
9am
mm
Dir  Spd
km/h
Gust
km/h
Spd
kts
Gust
kts
20/11:30pm 18.1 15.4 3.6 38 6.9 SE 7 9 4 5 1015.9 1014.6 0.0
20/11:00pm 18.3 15.4 4.8 41 6.5 SE 9 13 5 7 1015.8 1014.5 0.0
20/10:30pm 17.2 14.9 7.3 52 5.0 ENE 9 11 5 6 1015.6 1014.3 0.0
20/10:00pm 18.3 17.3 5.5 43 6.3 CALM 0 0 0 0 1015.2 1013.9 0.0
20/09:30pm 19.0 17.6 3.6 36 7.3 CALM 0 6 0 3 1014.8 1013.5 0.0
20/09:00pm 21.0 19.5 2.8 30 8.7 CALM 0 0 0 0 1014.3 1012.9 0.0
20/08:30pm 22.1 20.1 2.2 27 9.4 WNW 2 6 1 3 1013.8 1012.4 0.0
20/08:00pm 23.6 19.8 1.9 24 10.4 W 11 13 6 7 1013.2 1011.8 0.0
20/07:30pm 25.9 21.7 1.9 21 11.6 WNW 13 17 7 9 1012.6 1011.2 0.0
20/07:00pm 28.0 23.4 -1.0 15 13.6 W 13 17 7 9 1012.2 1010.8 0.0
20/06:30pm 28.7 23.3 -1.4 14 14.0 W 17 22 9 12 1011.9 1010.5 0.0
20/06:00pm 29.1 24.2 -3.2 12 14.7 SW 13 20 7 11 1011.4 1010.1 0.0
20/05:30pm 29.3 24.3 -0.9 14 14.3 W 15 28 8 15 1011.2 1009.9 0.0
20/05:00pm 29.2 24.1 -2.0 13 14.5 WNW 15 24 8 13 1011.2 1009.9 0.0
20/04:30pm 28.5 23.8 -1.6 14 14.0 WNW 13 26 7 14 1011.1 1009.8 0.0
20/04:00pm 28.8 23.7 0.5 16 13.7 W 17 24 9 13 1011.4 1010.1 0.0
20/03:30pm 28.5 23.2 -0.6 15 13.7 WNW 17 24 9 13 1011.7 1010.3 0.0
20/03:00pm 27.5 22.6 -0.5 16 13.2 W 15 28 8 15 1011.8 1010.4 0.0
20/02:30pm 27.0 22.4 -0.9 16 13.0 W 13 22 7 12 1012.2 1010.8 0.0
20/02:00pm 27.4 22.6 0.2 17 12.9 W 15 30 8 16 1012.5 1011.1 0.0

Other Formats:

Comma delimited format used in spreadsheet applications
http://www.bom.gov.au/fwo/IDN60801/IDN60801.95734.axf

JavaScript Object Notation format (JSON) in row-major order
http://www.bom.gov.au/fwo/IDN60801/IDN60801.95734.json